| time (UTC) | temp F | wind direction | speed knots | gust knots | rain 1hr in | rain 24hr in | rain mn in | humidity % | barometer mb |
| 20260505223018 | 60 | 360 | 1.7 | 8.7 | 0.00 | 0.00 | 0.00 | 85 | 1016.3 |
| 20260505221549 | 59 | 279 | 3.5 | 7.8 | 0.00 | 0.00 | 0.00 | 85 | 1016.3 |
| 20260505220020 | 58 | 297 | 2.6 | 10.4 | 0.00 | 0.00 | 0.00 | 85 | 1016.5 |
| 20260505214554 | 60 | 360 | 3.5 | 9.6 | 0.00 | 0.00 | 0.00 | 83 | 1016.4 |
| 20260505213106 | 60 | 279 | 0.9 | 10.4 | 0.00 | 0.00 | 0.00 | 84 | 1016.5 |
| 20260505211528 | 60 | 308 | 0.9 | 8.7 | 0.00 | 0.00 | 0.00 | 85 | 1016.5 |
| 20260505210040 | 60 | 269 | 4.3 | 9.6 | 0.00 | 0.00 | 0.00 | 83 | 1016.4 |
| 20260505204507 | 61 | 360 | 0.9 | 8.7 | 0.00 | 0.00 | 0.00 | 85 | 1016.3 |
| 20260505203029 | 60 | 360 | 3.5 | 8.7 | 0.00 | 0.00 | 0.00 | 84 | 1016.4 |
| 20260505201606 | 60 | 360 | 2.6 | 7.8 | 0.00 | 0.00 | 0.00 | 86 | 1016.4 |
| 20260505200019 | 59 | 360 | 3.5 | 7.8 | 0.00 | 0.00 | 0.00 | 86 | 1016.4 |
| 20260505194547 | 59 | 296 | 2.6 | 7.8 | 0.00 | 0.00 | 0.00 | 85 | 1016.3 |
| 20260505193032 | 60 | 360 | 3.5 | 7.0 | 0.00 | 0.00 | 0.00 | 86 | 1016.2 |
| 20260505191549 | 60 | 360 | 0.9 | 7.0 | 0.00 | 0.00 | 0.00 | 87 | 1016.2 |
| 20260505190110 | 59 | 360 | 3.5 | 7.0 | 0.00 | 0.00 | 0.00 | 88 | 1016.2 |
| 20260505184518 | 59 | 360 | 2.6 | 6.1 | 0.00 | 0.00 | 0.00 | 88 | 1016.1 |
| 20260505183042 | 58 | 221 | 1.7 | 4.3 | 0.00 | 0.00 | 0.00 | 88 | 1016.1 |
| 20260505181558 | 58 | 236 | 1.7 | 4.3 | 0.00 | 0.00 | 0.00 | 88 | 1015.9 |
| 20260505180031 | 58 | 360 | 1.7 | 3.5 | 0.00 | 0.00 | 0.00 | 89 | 1015.8 |
| 20260505174545 | 57 | 246 | 1.7 | 4.3 | 0.00 | 0.00 | 0.00 | 88 | 1015.7 |
| 20260505173008 | 57 | 260 | 0.0 | 2.6 | 0.00 | 0.00 | 0.00 | 89 | 1015.7 |
| 20260505171541 | 57 | 281 | 0.0 | 4.3 | 0.00 | 0.00 | 0.00 | 88 | 1015.7 |
| 20260505170114 | 57 | 239 | 0.0 | 3.5 | 0.00 | 0.00 | 0.00 | 88 | 1015.4 |
| 20260505164535 | 57 | 244 | 0.0 | 0.0 | 0.00 | 0.00 | 0.00 | 87 | 1015.4 |
| 20260505163038 | 57 | 246 | 0.0 | 0.0 | 0.00 | 0.00 | 0.00 | 86 | 1015.5 |
| 20260505161502 | 56 | 225 | 0.0 | 0.0 | 0.00 | 0.00 | 0.00 | 86 | 1015.5 |
| 20260505153005 | 55 | 172 | 0.0 | 0.0 | 0.00 | 0.00 | 0.00 | 89 | 1015.6 |
| 20260505151532 | 55 | 173 | 0.0 | 0.0 | 0.00 | 0.00 | 0.00 | 89 | 1015.5 |
| 20260505150115 | 54 | 173 | 0.0 | 0.0 | 0.00 | 0.00 | 0.00 | 90 | 1015.4 |
| 20260505124604 | 53 | 162 | 0.0 | 0.0 | 0.00 | 0.00 | 0.00 | 92 | 1014.8 |
| 20260505123024 | 53 | 162 | 0.0 | 0.0 | 0.00 | 0.00 | 0.00 | 92 | 1014.7 |
| 20260505121547 | 53 | 162 | 0.0 | 0.0 | 0.00 | 0.00 | 0.00 | 92 | 1014.8 |
| 20260505120058 | 53 | 162 | 0.0 | 0.0 | 0.00 | 0.00 | 0.00 | 91 | 1014.5 |
| 20260505114522 | 54 | 162 | 0.0 | 0.0 | 0.00 | 0.00 | 0.00 | 91 | 1014.6 |
| 20260505113051 | 54 | 168 | 0.0 | 0.0 | 0.00 | 0.00 | 0.00 | 91 | 1014.5 |
| 20260505111515 | 54 | 168 | 0.0 | 0.0 | 0.00 | 0.00 | 0.00 | 91 | 1014.4 |
| 20260505101553 | 54 | 165 | 0.0 | 0.0 | 0.00 | 0.00 | 0.00 | 90 | 1014.1 |
| 20260505100021 | 54 | 166 | 0.0 | 0.0 | 0.00 | 0.00 | 0.00 | 90 | 1014.0 |
| 20260505094547 | 54 | 171 | 0.0 | 0.0 | 0.00 | 0.00 | 0.00 | 90 | 1014.0 |
| 20260505093009 | 54 | 173 | 0.0 | 0.9 | 0.00 | 0.00 | 0.00 | 90 | 1014.0 |
| 20260505091545 | 54 | 171 | 0.0 | 0.9 | 0.00 | 0.00 | 0.00 | 90 | 1014.1 |
| 20260505090006 | 54 | 360 | 0.0 | 1.7 | 0.00 | 0.00 | 0.00 | 90 | 1014.2 |
| 20260505084531 | 54 | 163 | 0.0 | 5.2 | 0.00 | 0.00 | 0.00 | 91 | 1014.2 |
| 20260505083041 | 54 | 360 | 0.0 | 3.5 | 0.00 | 0.00 | 0.00 | 90 | 1014.2 |
| 20260505081502 | 54 | 198 | 1.7 | 6.1 | 0.00 | 0.00 | 0.00 | 90 | 1014.3 |
| 20260505080045 | 54 | 186 | 0.0 | 2.6 | 0.00 | 0.00 | 0.00 | 90 | 1014.4 |
| 20260505074556 | 54 | 211 | 1.7 | 5.2 | 0.00 | 0.00 | 0.00 | 90 | 1014.6 |
| 20260505073019 | 54 | 198 | 0.0 | 7.0 | 0.00 | 0.00 | 0.00 | 91 | 1014.5 |
| 20260505071547 | 54 | 179 | 1.7 | 3.5 | 0.00 | 0.00 | 0.00 | 91 | 1014.5 |
| 20260505070013 | 54 | 169 | 1.7 | 4.3 | 0.00 | 0.00 | 0.00 | 92 | 1014.6 |
| 20260505064537 | 54 | 172 | 0.0 | 5.2 | 0.00 | 0.00 | 0.00 | 92 | 1014.6 |
| 20260505063004 | 54 | 184 | 1.7 | 8.7 | 0.00 | 0.00 | 0.00 | 92 | 1014.6 |
| 20260505061529 | 54 | 151 | 2.6 | 6.1 | 0.00 | 0.00 | 0.00 | 92 | 1014.4 |
| 20260505060059 | 54 | 360 | 1.7 | 7.8 | 0.00 | 0.00 | 0.00 | 92 | 1014.4 |
| 20260505054523 | 54 | 178 | 1.7 | 5.2 | 0.00 | 0.00 | 0.00 | 92 | 1014.5 |
| 20260505053048 | 54 | 179 | 1.7 | 6.1 | 0.00 | 0.00 | 0.00 | 92 | 1014.4 |
| 20260505051600 | 54 | 174 | 1.7 | 6.1 | 0.00 | 0.00 | 0.00 | 93 | 1014.5 |
| 20260505041540 | 54 | 207 | 1.7 | 7.8 | 0.00 | 0.00 | 0.00 | 93 | 1013.9 |
| 20260505040043 | 54 | 186 | 0.0 | 6.1 | 0.00 | 0.00 | 0.00 | 93 | 1013.9 |
| 20260505034604 | 54 | 164 | 2.6 | 7.8 | 0.00 | 0.00 | 0.00 | 93 | 1013.6 |
| 20260505033026 | 54 | 187 | 1.7 | 9.6 | 0.00 | 0.00 | 0.00 | 93 | 1013.7 |
| 20260505031556 | 54 | 360 | 0.9 | 6.1 | 0.00 | 0.00 | 0.00 | 93 | 1013.6 |
| 20260505030016 | 54 | 222 | 1.7 | 8.7 | 0.00 | 0.00 | 0.00 | 92 | 1013.6 |
| 20260505024546 | 55 | 229 | 1.7 | 8.7 | 0.00 | 0.00 | 0.00 | 93 | 1013.5 |
| 20260505023009 | 55 | 185 | 3.5 | 10.4 | 0.00 | 0.00 | 0.00 | 92 | 1013.5 |
| 20260505021541 | 55 | 234 | 0.9 | 9.6 | 0.00 | 0.00 | 0.00 | 92 | 1013.2 |
| 20260505020003 | 55 | 202 | 3.5 | 8.7 | 0.00 | 0.00 | 0.00 | 91 | 1013.3 |
| 20260505014534 | 56 | 224 | 2.6 | 7.8 | 0.00 | 0.00 | 0.00 | 91 | 1013.3 |
| 20260505013058 | 56 | 215 | 3.5 | 11.3 | 0.00 | 0.00 | 0.00 | 90 | 1013.4 |
| 20260505011529 | 57 | 215 | 2.6 | 9.6 | 0.00 | 0.00 | 0.00 | 90 | 1013.5 |
| 20260505010049 | 57 | 360 | 5.2 | 14.8 | 0.00 | 0.00 | 0.00 | 89 | 1013.4 |
| 20260505004524 | 57 | 207 | 2.6 | 10.4 | 0.00 | 0.00 | 0.00 | 90 | 1013.6 |
| 20260505003042 | 58 | 257 | 7.0 | 13.9 | 0.00 | 0.00 | 0.00 | 88 | 1013.6 |
| 20260505001506 | 57 | 251 | 5.2 | 13.0 | 0.00 | 0.00 | 0.00 | 89 | 1013.7 |
| 20260505000040 | 57 | 192 | 6.1 | 12.2 | 0.00 | 0.00 | 0.00 | 89 | 1013.9 |
| 20260504234615 | 58 | 205 | 4.3 | 12.2 | 0.00 | 0.00 | 0.00 | 89 | 1013.9 |
| 20260504233025 | 58 | 190 | 6.1 | 16.5 | 0.00 | 0.00 | 0.00 | 88 | 1013.9 |
| 20260504231553 | 58 | 182 | 5.2 | 13.9 | 0.00 | 0.00 | 0.00 | 87 | 1014.0 |
| 20260504230019 | 59 | 164 | 2.6 | 14.8 | 0.00 | 0.00 | 0.00 | 89 | 1014.2 |
| 20260504224600 | 59 | 360 | 6.1 | 16.5 | 0.00 | 0.00 | 0.00 | 87 | 1014.1 |